Regional Weather Roundup
Issued by NWS

Home | Current Version | Previous Version | Text Only | Print | Product List | Glossary Off
Versions: 1 2 3 4 5 6 7 8 9 10 11 12 13 14 15 16 17 18 19 20 21 22 23 24 25 26 27 28 29 30 31 32 33 34 35 36 37 38 39 40 41 42 43 44 45 46 47 48 49 50

000
ASUS43 KFSD 271410
RWRSD

WEATHER ROUNDUP FOR SOUTH DAKOTA
NATIONAL WEATHER SERVICE SIOUX FALLS SD
900 AM CDT MON JUL 27 2015

NOTE: "FAIR" INDICATES FEW OR NO CLOUDS BELOW 12,000 FEET WITH NO
SIGNIFICANT WEATHER AND/OR OBSTRUCTIONS TO VISIBILITY.


SDZ001>005-009-010-012>017-271500-
NORTHWEST AND NORTH CENTRAL SOUTH DAKOTA

CITY           SKY/WX    TMP DP  RH WIND       PRES   REMARKS
BUFFALO          N/A     70  61  73 SE16      29.71S
FAITH            N/A     71  62  73 SE22G29   29.79F
MOBRIDGE       SUNNY     78  71  79 S18G25    29.76F
$$

SDZ012>016-024>037-041>051-057-063-072>074-271500-
SOUTHWEST AND SOUTH CENTRAL SOUTH DAKOTA

CITY           SKY/WX    TMP DP  RH WIND       PRES   REMARKS
RAPID CTY ARPT SUNNY     70  60  70 S16       29.80F
PIERRE         CLOUDY    72  70  93 SE14      29.81F
CUSTER         SUNNY     71  55  56 W5        29.97S
ELLSWORTH AFB  SUNNY     70  60  69 S17G26    29.79F
PHILIP         SUNNY     71  65  81 E12       29.81F
PINE RIDGE     SUNNY     70  60  70 S9        29.85F
SPEARFISH      FAIR      68  59  73 CALM      29.79S
WINNER         FAIR      80  62  54 SE9       29.85F
$$

SDZ004>011-016>023-039-040-271500-
NORTHEAST SOUTH DAKOTA

CITY           SKY/WX    TMP DP  RH WIND       PRES   REMARKS
ABERDEEN       MOSUNNY   75  70  84 SE8       29.84R
WATERTOWN      MOSUNNY   75  71  87 S15       29.88F
BROOKINGS      CLOUDY    73  70  88 SE8       29.91F
SISSETON         N/A     71  70  96 S10       29.87R
$$

SDZ017-020-022-023-036>040-048>070-271500-
SOUTHEAST SOUTH DAKOTA

CITY           SKY/WX    TMP DP  RH WIND       PRES   REMARKS
SIOUX FALLS    LGT RAIN  76  72  87 E7        29.90S
HURON          CLOUDY    75  72  90 SE15      29.83F
CHAMBERLAIN    PTSUNNY   74  72  92 SE9       29.85S
MITCHELL       PTSUNNY   76  75  97 SE6       29.87F
YANKTON        CLOUDY    75  68  78 E6        29.86F
$$

ABBREVIATIONS USED IN REMARKS
   TC - TEMPERATURE IN CELSIUS
  WCI - WIND CHILL INDEX
   HX - HEAT INDEX
  VSB - VISIBILITY




USA.gov is the U.S. government's official web portal to all federal, state and local government web resources and services.